Regional Weather Roundup
Issued by NWS Upton, NY

Current Version | Previous Version | Graphics & Text | Print | Product List | Glossary Off
Versions: 1 2 3 4 5 6 7 8 9 10 11 12 13 14 15 16 17 18 19 20 21 22 23 24 25 26 27 28 29 30 31 32 33 34 35 36 37 38 39 40 41 42 43 44 45 46 47 48 49 50

000
ASUS41 KOKX 201009
RWROKX

REGIONAL WEATHER ROUNDUP
NATIONAL WEATHER SERVICE NEW YORK NY
600 AM EDT THU JUL 20 2017

NOTE: "FAIR" INDICATES FEW OR NO CLOUDS BELOW 12,000 FEET WITH NO
SIGNIFICANT WEATHER AND/OR OBSTRUCTIONS TO VISIBILITY.

NYZ071-072-176-178-NJZ106-104-201100-
NEW YORK CITY METRO AREA

CITY           SKY/WX    TMP DP  RH WIND       PRES   REMARKS
Central Park   CLEAR     79  70  74 CALM      29.99S
Bronx Bot Gard   N/A     73  68  83 CALM      29.97R
LaGuardia APRT PTCLDY    78  74  87 NE3       29.95S
Kennedy INTL   PTCLDY    77  76  96 SW6       29.96S
Breezy Point     N/A     73 N/A N/A SW5         N/A
Newark/Liberty PTCLDY    78  71  79 W3        29.96S
Teterboro      CLEAR     76  68  76 N3        29.95F
$$

NYZ177-179-078>081-201100-
LONG ISLAND NEW YORK

CITY           SKY/WX    TMP DP  RH WIND       PRES   REMARKS
Jones Beach      N/A     75 N/A N/A SW1         N/A
Matinecock PT    N/A     73 N/A N/A E5          N/A
Farmingdale    CLEAR     74  72  93 S3        29.96F
MacArthur/ISP  PTCLDY    73  71  93 CALM      29.96F
Shirley        PTCLDY    71  70  96 CALM      29.97S FOG
Mt Sinai Harb    N/A    N/A N/A N/A MISG        N/A
Westhampton    CLEAR     66  63  90 CALM      29.99S FOG
East Hampton   FAIR      64  63  96 CALM      29.96S
Montauk          N/A     74  72  93 CALM      29.97S
$$

NYZ052-065-067-201100-
HUDSON VALLEY

CITY           SKY/WX    TMP DP  RH WIND       PRES   REMARKS
White Plains   CLEAR     72  64  76 NW3       29.97F
Larchmont Harb   N/A     72 N/A N/A MISG        N/A
Croton O-T Hud   N/A     70 N/A N/A NE1         N/A
Newburgh       CLEAR     68  66  94 CALM      30.00S
Montgomery     CLEAR     64  63  96 CALM      29.98R
Poughkeepsie   CLEAR     66  63  90 CALM      29.97R
Albany         PTCLDY    69  64  84 CALM      29.97R
$$

NJZ001-105-106-008-010-013-015-019>022-104-201100-
NEW JERSEY

CITY           SKY/WX    TMP DP  RH WIND       PRES   REMARKS
Newark/Liberty PTCLDY    78  71  79 W3        29.96S
Teterboro      CLEAR     76  68  76 N3        29.95F
Caldwell       CLEAR     71  69  93 CALM      29.98S
Somerville     FOG       71  70  96 MISG      29.96R VSB 3/4
Linden         FAIR      78  70  76 W5        29.97R
Perth Amboy      N/A     77 N/A N/A W3          N/A
Sussex         CLOUDY    67  67 100 CALM      30.00R FOG
Andover          N/A     68  67  96 CALM      30.00R
Trenton        CLEAR     77  72  84 SW3       29.97S
Millville      CLEAR     75  75 100 CALM      29.98S
Atlantic City  PTCLDY    78  74  87 SW7       29.98F
Wrightstown    PTCLDY    74  72  94 SW3       29.95F
Toms River     CLOUDY    74  72  93 SW5       29.98S
Belmar         PTCLDY    74  72  93 SW6       29.98S
$$

PAZ047>061-062-071-201100-
EASTERN PENNSYLVANIA

CITY           SKY/WX    TMP DP  RH WIND       PRES   REMARKS
Philadelphia   MOCLDY    79  74  84 SW5       29.98S
Allentown      CLEAR     71  68  90 CALM      29.99R
Scranton       PTCLDY    68  66  93 E3        30.02S FOG
$$

CTZ002-004>006-009-010-012-RIZ004-006-007-MAZ004-011-015-201100-
SOUTHERN NEW ENGLAND
 IN CT

CITY           SKY/WX    TMP DP  RH WIND       PRES   REMARKS
Bradley INTL   PTCLDY    70  66  87 SW3       29.96S
Hartford       CLEAR     71  70  96 CALM      29.96R
Danbury        CLEAR     65  63  93 CALM      30.00S
Wtrbury/Oxford CLEAR     64  59  82 CALM      29.99S
Bridgeport     CLEAR     73  65  75 N3        29.96S
Meriden        CLEAR     66  65  96 CALM      29.97S
New Haven      PTCLDY    69  66  90 CALM      29.96F
Chester        FAIR      68  64  88 MISG      29.97F
Groton         CLEAR     69  67  93 CALM      29.95S
Wilimantic     PTCLDY    68  66  93 CALM      29.97S

 IN RI

CITY           SKY/WX    TMP DP  RH WIND       PRES   REMARKS
Providence     PTCLDY    71  69  93 CALM      29.95F
Block Island   CLEAR     71  70  96 W6        29.96S
Westerly       CLEAR     68  66  93 CALM      29.96F
 IN MA

CITY           SKY/WX    TMP DP  RH WIND       PRES   REMARKS
Boston         PTCLDY    75  63  66 W6        29.93S
Worcester      CLEAR     71  60  68 W10       29.99S
Westfield      PTCLDY    67  66  97 CALM      29.96F
Provincetown   CLEAR     69  67  93 SW5       29.94R
Nantucket      FOG       71  71 100 W7        29.95S VSB<1/4
$$

ANZ330-335-338-340-345-350-353-355-201100-
COASTAL MARINE OBSERVATIONS


STATION/POSITION TIME  SKY/WX   TEMP    WIND        PRES    VSBY  WAVE
                                AIR SEA DIR/SP/G                  HT/PER
                 (UTC)          (F)     (DEG/KT/KT) (MB)    (MI)  (FT/S)
NY HARB ENTRANCE NOT AVBL
20 S FIRE ISLAND 0950            76 74  230/ 10/ 12 1014.1          3/ 5
GREAT SOUTH BAY  0930            78 81     CALM       N/A
23 SSW MONTAUK P NOT AVBL
15 E BARNEGAT LI 0930               78                N/A           3/15
HUDSON CANYON    0850            79 78  250/ 14/ 16 1014.6          3/ 4
KINGS POINT      0936            73 72   40/  4/  4 1014.4
EXECUTION ROCKS  0945            74     360/  2/  2   N/A
CENTRAL LI SOUND 0945            76     300/  6/  8   N/A           0
EASTERN LI SOUND NOT AVBL
ROBBINS REEF     0936                   240/  5/  5 1015.1
$$


>>>>>>>>>>>>>>>>>>>>>>>>>>>> KEY <<<<<<<<<<<<<<<<<<<<<<<<<<<
>                                                          <
>     SKY/WX - Sky Condition/Present Weather               <
>     TMP    - Temperature in Fahrenheit                   <
>     DP     - Dew Point in Fahrenheit                     <
>     RH     - Relative Humidity in Percent                <
>     WIND   - Direction (from) and Speed in MPH           <
>     PRES   - Mean Sea Level Pressure (inches of Hg)      <
>     WCI    - Wind Chill Index                            <
>     VSB    - VISIBILITY IN MILES                         <
>     HX     - HEAT INDEX                                  <
>     TC     - TEMPERATURE IN CELSIUS                      <
>     VRB    - VARIABLE WIND DIRECTION                     <
>                                                          <
>>>>>>>>>>>>>>>>>>>>>>>>>>>> KEY <<<<<<<<<<<<<<<<<<<<<<<<<<<



USA.gov is the U.S. government's official web portal to all federal, state and local government web resources and services.